Regional Weather Roundup
Issued by NWS

Home | Current Version | Previous Version | Graphics & Text | Print | Product List | Glossary On
Versions: 1 2 3 4 5 6 7 8 9 10 11 12 13 14 15 16 17 18 19 20 21 22 23 24 25 26 27 28 29 30 31 32 33 34 35 36 37 38 39 40 41 42 43 44 45 46 47 48 49 50
000
ASUS45 KCYS 061710
RWRWY

WYOMING REGIONAL WEATHER ROUNDUP
NATIONAL WEATHER SERVICE CHEYENNE WY
1100 AM MDT WED MAY 06 2015

NOTE:  "FAIR" INDICATES FEW OR NO CLOUDS BELOW 12,000 FEET
WITH NO SIGNIFICANT WEATHER AND/OR OBSTRUCTIONS TO VISIBILITY.

WYZ001-061800-
YELLOWSTONE NATIONAL PARK

CITY           SKY/WX    TMP DP  RH WIND       PRES   REMARKS
LK YELLOWSTONE   N/A     41  36  82 SE3       29.89S
W YELLOWSTONE  NOT AVBL

$$
WYZ002>013-054>058-071-098>099-061800-
NORTHERN WYOMING

CITY           SKY/WX    TMP DP  RH WIND       PRES   REMARKS
JACKSON        NOT AVBL
CODY           CLOUDY    45  37  76 N18       29.85S
GREYBULL       LGT RAIN  52  46  80 NW24G31   29.74S
WORLAND        LGT RAIN  55  49  80 NW21G28   29.75R
SHERIDAN       LGT RAIN  46  44  93 NW28G37   29.82R
BUFFALO        CLOUDY    50  44  80 N29G39    29.79R
GILLETTE       CLOUDY    51  47  86 NW17      29.72R
HULETT         RAIN      54  52  94 N3        29.73S
NEWCASTLE      LGT RAIN  52  52 100 S3        29.72S

$$
WYZ014>020-022>026-101>103-061800-
CENTRAL WYOMING

CITY           SKY/WX    TMP DP  RH WIND       PRES   REMARKS
BIG PINEY      FAIR      56  29  35 NW15G22   29.82F
PINEDALE       FAIR      54  32  43 NW16G23   29.81F
DUBOIS         FAIR      54  28  37 NW13      29.81S
LANDER         LGT RAIN  50  47  89 NE8       29.80R
RIVERTON       LGT RAIN  49  46  90 N8        29.81R
CASPER         CLOUDY    54  44  69 NE16      29.75S
DOUGLAS        CLOUDY    53  50  89 N7        29.73S

$$
WYZ021-027>030-104>119-061800-
SOUTHERN WYOMING

CITY           SKY/WX    TMP DP  RH WIND       PRES   REMARKS
EVANSTON       CLOUDY    51  39  63 W8        29.86F
KEMMERER       FAIR      52  32  46 NW9       29.85F
FORT BRIDGER   MOSUNNY   54  37  54 W8        29.88S
ROCK SPRINGS   FAIR      55  37  50 W12       29.81F
DIXON          CLOUDY    53  47  78 W10       29.83S
RAWLINS        CLOUDY    50  42  74 N6        29.80S
SARATOGA       CLOUDY    48  45  87 MISG      29.80F
LARAMIE        CLOUDY    50  41  71 NW14      29.77S
CHEYENNE       LGT RAIN  52  47  83 N9        29.72S
TORRINGTON     LGT RAIN  57  52  83 NE5       29.66F
PINE BLUFFS    CLOUDY    54  52  94 N17       29.69S

$$


USA.gov is the U.S. government's official web portal to all federal, state and local government web resources and services.